Temperature
5 5 5 5 5 5 4 4 4 3 3 4 4 4 4 4 4 4 4 4 3 3 3 3 3 3 3 3 3 3 3 3 3 3 3 3 4 4
5 5 5 4 4 4 4 4 3 3 3 3 3 3 3 3 3 3 3 3 3 3 3 3 3 3 3 3 3 3 3 3 3 3 3 3 3 3
4 4 4 4 4 4 4 3 3 3 2 3 3 3 3 3 3 3 3 3 3 2 2 2 2 2 2 2 2 2 2 2 2 2 2 2 2 2
4 4 4 4 4 3 3 3 3 2 2 2 3 3 2 2 2 2 2 2 2 2 2 2 1 1 1 2 2 1 1 2 2 2 2 2 2 2
3 3 3 3 3 3 3 3 2 2 2 1 2 2 2 2 2 2 2 1 1 1 1 1 1 1 1 1 1 1 1 1 1 1 1 1 1 1
3 3 3 3 3 2 2 2 2 1 1 1 1 1 1 1 1 1 1 1 1 1 1 1 1 1 1 1 1 0 0 0 0 0 0 1 1 1
3 3 2 2 2 2 2 1 1 1 1 0 0 1 1 0 0 0 -0 0 0 0 0 0 0 0 0 0 0 0 0 -0 -0 -0 -0 -0 0 0
2 2 2 2 2 1 1 1 1 0 0 -0 -0 -0 -0 -0 -0 -1 -1 -1 -1 -1 -1 -0 -0 -0 -0 -0 -0 -0 -0 -0 -1 -1 -1 -1 -0 -0
2 2 2 1 1 1 1 0 0 -0 -0 -1 -1 -1 -1 -1 -1 -1 -1 -1 -2 -1 -1 -1 -0 -1 -0 -0 -0 -1 -1 -1 -1 -1 -1 -1 -1 -1
1 1 1 1 1 0 0 0 0 -0 -0 -1 -1 -1 -1 -1 -2 -2 -2 -2 -2 -2 -2 -2 -1 -1 -1 -1 -1 -1 -1 -1 -1 -1 -2 -2 -2 -1
1 1 0 0 0 -0 -0 -0 -0 -0 -1 -1 -1 -1 -2 -2 -2 -2 -2 -3 -3 -2 -2 -3 -2 -2 -1 -1 -1 -2 -2 -2 -2 -2 -2 -2 -2 -2
0 0 0 -0 -0 -1 -1 -1 -1 -1 -1 -1 -1 -1 -2 -2 -2 -2 -3 -3 -3 -3 -3 -3 -3 -3 -3 -2 -2 -2 -2 -2 -2 -2 -2 -3 -3 -2
-0 -0 -0 -1 -1 -1 -1 -1 -1 -2 -2 -2 -2 -2 -2 -2 -2 -3 -3 -3 -4 -4 -4 -4 -4 -4 -5 -4 -3 -3 -3 -3 -3 -3 -3 -3 -3 -3
-1 -1 -1 -1 -1 -1 -1 -2 -2 -2 -2 -2 -2 -2 -2 -2 -3 -3 -3 -3 -4 -4 -4 -4 -5 -5 -5 -5 -4 -3 -3 -3 -3 -3 -3 -3 -3 -3
-1 -1 -1 -1 -2 -2 -2 -2 -2 -2 -3 -3 -3 -3 -3 -3 -3 -3 -3 -4 -4 -4 -4 -4 -4 -5 -5 -5 -5 -4 -4 -4 -4 -4 -4 -4 -4 -4
-2 -2 -2 -2 -2 -2 -2 -2 -3 -3 -3 -3 -3 -3 -3 -3 -3 -4 -4 -4 -4 -4 -4 -4 -5 -5 -5 -5 -5 -5 -4 -5 -4 -4 -4 -4 -4 -4
-2 -2 -2 -2 -3 -3 -3 -3 -3 -3 -3 -3 -4 -4 -4 -4 -4 -4 -4 -4 -5 -4 -4 -4 -5 -5 -5 -5 -5 -5 -5 -5 -5 -5 -5 -4 -4 -4
-3 -3 -3 -3 -3 -3 -3 -3 -4 -4 -4 -4 -4 -4 -4 -4 -4 -4 -5 -5 -5 -5 -5 -5 -5 -5 -5 -5 -5 -5 -5 -5 -5 -5 -5 -5 -4 -4
-3 -3 -3 -3 -3 -4 -4 -4 -4 -4 -4 -4 -4 -4 -4 -5 -5 -5 -5 -5 -5 -5 -5 -6 -6 -6 -6 -6 -5 -5 -6 -5 -5 -5 -5 -5 -5 -5
-3 -3 -4 -4 -4 -4 -4 -4 -4 -4 -4 -4 -4 -4 -5 -5 -5 -5 -5 -5 -6 -6 -6 -6 -6 -6 -6 -6 -6 -6 -6 -6 -6 -5 -5 -5 -5 -5
-4 -4 -4 -4 -4 -4 -4 -4 -4 -4 -4 -4 -5 -5 -5 -5 -5 -5 -5 -6 -6 -6 -6 -6 -6 -6 -6 -6 -6 -6 -6 -6 -6 -6 -6 -6 -6 -5
-4 -4 -4 -4 -5 -5 -5 -5 -5 -5 -5 -5 -5 -5 -5 -5 -5 -5 -5 -6 -6 -6 -6 -6 -6 -6 -7 -7 -6 -6 -6 -6 -6 -6 -6 -6 -6 -6
-4 -4 -5 -5 -5 -5 -5 -5 -5 -5 -5 -5 -5 -5 -5 -5 -6 -6 -6 -6 -6 -6 -6 -6 -7 -7 -7 -7 -7 -7 -7 -6 -6 -6 -6 -6 -6 -6
Wind_Speed
2 2 2 2 2 2 2 3 3 3 4 3 2 2 4 5 7 6 7 9 10 11 11 12 12 12 13 13 13 14 14 14 14 14 14 14 13 14
2 2 3 3 2 2 3 2 3 4 4 3 3 3 4 6 8 7 8 9 10 10 11 11 12 13 13 13 13 14 14 14 14 13 13 13 13 13
2 3 4 3 2 2 2 2 3 3 5 5 3 3 3 4 6 7 8 8 8 10 11 12 12 12 13 13 14 14 14 14 13 13 13 13 13 12
3 3 4 3 3 3 3 4 4 4 4 7 5 3 4 4 4 5 6 7 7 10 11 12 12 12 13 13 13 13 13 13 13 12 12 12 12 12
4 5 5 4 4 4 3 4 3 4 3 5 6 4 3 3 3 4 5 4 7 9 10 11 11 13 13 13 13 12 12 12 12 11 11 12 12 12
5 5 5 6 6 5 4 4 4 4 4 4 5 4 4 3 2 4 5 3 5 6 8 10 12 13 12 12 12 12 12 11 11 11 11 11 12 12
5 5 6 7 8 6 5 4 4 4 4 4 5 5 4 3 3 3 5 5 4 3 4 5 7 7 9 11 11 12 12 11 10 11 11 11 12 12
5 5 5 6 7 9 10 9 7 6 5 5 5 6 6 5 4 4 4 4 5 2 3 6 4 5 6 7 11 11 10 10 9 10 10 10 11 11
5 5 4 5 6 5 8 9 9 10 9 6 6 7 6 5 4 5 4 5 6 4 3 6 4 5 6 8 11 10 9 8 9 9 10 10 11 11
6 6 5 5 6 5 5 5 6 6 7 6 6 7 6 5 4 4 5 5 5 4 2 4 4 5 6 7 9 8 8 8 9 9 9 10 11 11
5 5 6 6 8 8 5 5 5 5 8 9 10 9 10 9 6 2 3 4 5 4 2 2 3 4 5 4 6 8 8 9 9 9 9 10 10 11
4 5 7 7 8 8 5 5 6 6 4 5 6 7 7 8 8 5 4 4 4 4 2 2 2 3 4 3 3 5 6 8 9 9 10 10 10 7
4 4 5 9 9 9 8 5 8 6 4 4 4 4 4 4 4 4 5 5 5 5 3 2 2 2 3 4 3 3 4 5 6 7 9 10 10 8
4 4 5 8 9 9 7 7 9 7 3 3 4 4 4 4 4 4 6 7 7 7 6 4 3 3 3 5 5 3 3 5 4 5 6 9 10 10
4 6 7 8 8 6 7 8 7 4 3 4 5 5 4 4 3 3 3 4 5 6 7 7 5 5 4 5 5 4 4 4 4 3 4 5 5 5
4 5 7 7 6 6 6 5 4 4 4 5 5 4 3 3 3 3 3 2 2 3 4 7 7 6 5 6 6 7 5 4 4 4 5 5 5 6
3 2 2 2 3 3 3 3 3 3 4 4 4 4 4 3 3 3 3 2 3 3 3 2 3 5 6 5 5 6 5 5 5 5 5 6 6 5
4 3 3 4 4 4 4 4 4 4 4 4 4 4 4 4 4 3 3 3 4 4 3 2 1 2 2 4 7 6 5 5 5 5 4 5 7 5
4 3 4 4 4 4 4 4 4 4 4 4 4 4 4 4 3 3 3 3 4 4 3 2 2 2 3 5 3 5 4 5 5 5 4 5 6 7
3 4 4 4 4 5 5 4 4 4 3 4 4 4 4 4 3 4 4 4 4 3 3 3 3 3 4 4 4 4 6 5 4 5 5 5 6 8
4 4 5 4 4 5 4 4 4 4 4 4 4 4 4 4 4 4 3 4 3 3 4 4 4 4 2 1 3 4 4 6 6 5 4 5 5 5
5 5 5 5 4 4 4 4 3 3 3 4 3 3 3 3 4 4 3 3 3 3 4 3 2 1 1 3 4 5 5 5 6 7 7 7 4 3
5 5 4 4 4 4 3 4 4 4 3 3 3 3 3 3 3 3 3 3 2 3 2 2 2 1 2 2 3 4 5 5 4 4 4 7 8 10
Wind_Direction
203 209 223 240 233 222 210 202 209 263 277 262 261 267 294 291 293 295 293 297 303 305 306 309 309 309 308 307 305 305 304 306 304 303 304 305 304 304
211 216 231 236 236 225 216 214 212 224 260 261 255 277 292 299 297 297 290 298 300 301 302 306 308 308 305 305 304 304 304 304 301 302 304 306 305 305
226 221 235 236 230 234 224 221 225 222 257 279 266 275 270 279 299 299 295 292 292 298 301 304 304 305 306 304 303 302 302 302 302 302 303 304 306 306
229 226 236 236 232 236 227 227 232 228 241 275 284 278 269 270 280 287 300 298 293 297 300 301 302 305 305 302 301 299 300 300 300 302 304 304 305 305
227 227 233 224 236 238 235 234 237 248 241 263 279 280 280 278 284 289 289 292 298 297 299 299 300 303 303 302 299 298 298 298 297 298 302 303 304 304
234 232 232 227 229 233 237 235 237 245 253 262 275 284 283 276 269 285 298 288 292 300 297 296 296 299 300 300 297 296 296 295 297 299 300 300 300 302
243 240 238 239 238 239 243 236 229 239 251 263 275 283 283 284 278 278 286 298 289 275 293 292 293 292 294 294 293 292 290 289 292 296 299 299 299 299
249 252 250 248 252 256 256 252 241 238 243 253 268 271 276 274 274 276 284 302 296 269 295 292 282 284 290 285 287 289 287 287 291 297 300 302 303 302
244 249 257 252 252 243 255 261 259 257 252 247 256 263 268 263 265 269 265 271 275 275 296 287 285 284 290 291 291 288 289 293 302 305 306 305 305 304
240 236 241 249 244 239 239 250 252 256 259 252 245 255 259 256 248 256 261 277 278 266 246 273 291 290 299 295 290 290 298 303 306 304 304 306 305 304
248 237 236 242 255 255 246 251 266 269 274 271 269 269 271 270 264 267 267 276 288 280 228 250 285 300 296 287 289 296 302 307 312 309 307 307 307 309
258 249 250 250 258 258 240 238 259 268 268 282 280 280 273 267 263 240 234 251 270 274 222 229 273 320 307 284 289 303 304 303 309 308 308 309 311 312
259 257 251 260 263 261 256 241 255 267 259 258 268 269 268 258 256 250 238 235 242 254 233 220 244 253 264 294 294 284 284 294 300 299 304 306 308 307
258 258 257 264 266 266 264 259 266 273 259 257 263 263 262 260 255 255 250 248 245 245 239 224 230 238 263 282 285 291 291 286 286 289 294 302 304 303
257 264 269 270 271 269 265 267 268 255 247 259 262 260 256 251 254 264 265 262 263 260 249 237 230 237 240 257 272 281 296 292 281 285 297 300 299 300
270 271 275 276 270 268 272 271 253 239 243 253 261 258 256 248 249 246 251 263 272 278 260 245 236 232 247 253 258 273 273 269 284 293 298 298 293 285
276 275 269 273 261 263 264 259 249 249 253 249 253 257 252 249 255 247 240 246 250 270 283 270 253 249 243 246 259 263 267 273 274 286 296 297 292 284
279 269 268 265 266 269 267 264 255 250 247 248 249 244 242 244 249 248 246 241 250 261 266 265 278 305 296 269 234 248 264 270 280 285 282 285 291 291
265 261 265 267 268 268 263 259 260 253 243 243 246 241 240 242 246 250 248 251 254 258 259 244 235 246 280 294 280 231 247 274 287 289 280 272 282 290
255 260 265 267 269 269 266 264 262 259 249 248 244 238 235 238 241 241 240 247 253 258 262 249 234 234 238 259 279 282 258 258 272 283 287 285 283 286
263 264 263 265 268 269 268 265 260 256 250 247 241 237 234 233 235 236 238 248 252 250 255 262 257 263 241 241 280 283 282 274 269 270 283 294 296 300
263 263 264 264 266 268 267 265 266 261 253 244 237 237 231 225 227 230 233 239 246 251 259 266 265 257 226 244 268 282 294 305 303 293 277 265 267 278
263 264 265 266 263 263 263 262 261 263 257 244 233 229 221 222 224 225 228 231 243 253 262 271 281 273 256 245 266 281 292 304 314 322 313 304 291 285
Height
1490 1491 1491 1491 1491 1491 1491 1491 1491 1487 1485 1485 1485 1485 1485 1484 1483 1482 1481 1480 1479 1477 1476 1474 1473 1471 1469 1467 1466 1464 1463 1461 1460 1459 1457 1456 1455 1454
1487 1487 1487 1487 1487 1487 1487 1487 1487 1485 1483 1481 1481 1480 1480 1480 1479 1477 1476 1475 1474 1472 1471 1469 1468 1466 1464 1463 1461 1459 1458 1456 1454 1453 1452 1451 1450 1449
1483 1483 1483 1483 1483 1483 1483 1482 1482 1481 1479 1477 1476 1476 1475 1474 1473 1473 1471 1470 1468 1467 1466 1464 1463 1461 1459 1457 1456 1454 1452 1451 1449 1448 1446 1445 1445 1443
1480 1479 1479 1479 1479 1478 1478 1477 1477 1476 1475 1473 1471 1471 1470 1469 1468 1467 1466 1465 1463 1462 1460 1459 1457 1456 1454 1452 1450 1448 1447 1445 1443 1442 1441 1440 1439 1438
1475 1475 1475 1474 1474 1474 1473 1472 1472 1471 1471 1469 1466 1466 1465 1464 1463 1462 1461 1459 1458 1457 1455 1454 1452 1450 1448 1446 1444 1443 1441 1439 1438 1437 1436 1435 1434 1433
1470 1470 1470 1469 1469 1469 1468 1467 1467 1466 1466 1464 1462 1461 1460 1459 1458 1456 1454 1454 1452 1451 1450 1448 1447 1445 1443 1441 1439 1437 1436 1434 1433 1432 1431 1429 1428 1427
1465 1465 1465 1464 1464 1464 1463 1463 1462 1461 1460 1459 1457 1456 1455 1454 1453 1451 1449 1448 1447 1446 1444 1443 1441 1439 1437 1435 1433 1431 1430 1429 1428 1427 1425 1424 1423 1422
1460 1459 1459 1459 1459 1459 1458 1458 1457 1456 1455 1454 1453 1451 1450 1449 1448 1447 1445 1443 1441 1441 1439 1437 1436 1433 1431 1429 1428 1426 1425 1424 1423 1421 1420 1419 1418 1416
1454 1454 1454 1454 1453 1453 1453 1452 1452 1451 1451 1450 1448 1446 1445 1444 1443 1442 1440 1439 1437 1436 1434 1431 1431 1428 1426 1424 1423 1421 1420 1419 1418 1416 1415 1413 1412 1411
1449 1449 1448 1448 1448 1447 1447 1446 1446 1445 1445 1444 1443 1442 1441 1439 1438 1437 1436 1434 1432 1431 1430 1426 1424 1423 1421 1420 1418 1417 1416 1414 1413 1411 1410 1408 1407 1406
1444 1444 1443 1443 1443 1442 1442 1441 1440 1439 1439 1438 1437 1436 1435 1434 1433 1432 1430 1429 1426 1425 1425 1422 1419 1417 1416 1414 1413 1412 1411 1410 1408 1406 1405 1404 1402 1401
1439 1438 1438 1438 1437 1437 1436 1435 1434 1433 1433 1432 1431 1430 1430 1429 1428 1427 1426 1424 1422 1420 1419 1418 1416 1414 1411 1409 1409 1408 1407 1405 1404 1402 1401 1399 1398 1396
1433 1433 1433 1433 1432 1432 1431 1430 1429 1429 1427 1426 1425 1424 1424 1423 1422 1422 1421 1419 1418 1416 1416 1414 1412 1410 1409 1405 1403 1403 1402 1401 1399 1398 1396 1395 1393 1391
1429 1428 1428 1428 1427 1427 1426 1425 1425 1424 1422 1421 1420 1418 1418 1417 1417 1416 1415 1414 1413 1412 1411 1410 1408 1407 1405 1402 1399 1398 1398 1396 1395 1393 1391 1390 1388 1386
1425 1424 1423 1423 1422 1421 1421 1420 1419 1418 1417 1416 1414 1413 1413 1412 1411 1410 1410 1409 1408 1408 1407 1405 1404 1403 1401 1399 1396 1394 1392 1391 1390 1388 1386 1384 1382 1380
1420 1419 1418 1417 1417 1416 1415 1414 1414 1413 1412 1410 1409 1408 1408 1407 1406 1405 1404 1403 1402 1401 1401 1401 1399 1398 1396 1395 1393 1390 1389 1387 1385 1384 1382 1380 1378 1376
1415 1414 1413 1412 1411 1410 1409 1409 1408 1407 1406 1405 1404 1403 1402 1401 1401 1400 1399 1398 1397 1396 1395 1395 1395 1393 1392 1390 1388 1386 1385 1383 1382 1380 1377 1375 1373 1372
1411 1409 1408 1407 1406 1405 1404 1403 1403 1402 1401 1400 1399 1398 1397 1397 1396 1395 1395 1394 1393 1392 1391 1390 1389 1388 1387 1385 1385 1382 1381 1379 1377 1376 1374 1371 1368 1367
1406 1404 1403 1402 1401 1400 1399 1398 1397 1396 1396 1394 1394 1393 1393 1392 1391 1391 1390 1389 1388 1388 1387 1386 1385 1384 1382 1380 1379 1379 1377 1375 1373 1371 1370 1367 1364 1362
1400 1399 1399 1398 1397 1395 1394 1393 1392 1391 1390 1389 1389 1388 1388 1388 1387 1386 1386 1385 1384 1384 1383 1382 1382 1381 1379 1378 1375 1374 1374 1372 1369 1367 1365 1363 1361 1359
1396 1395 1394 1393 1392 1391 1390 1388 1387 1386 1385 1385 1384 1384 1384 1383 1383 1382 1382 1381 1381 1380 1379 1378 1378 1378 1376 1375 1373 1370 1370 1369 1367 1364 1362 1359 1356 1354
1391 1390 1389 1388 1387 1386 1385 1384 1383 1382 1381 1380 1380 1380 1380 1379 1379 1379 1378 1378 1377 1377 1376 1375 1374 1374 1373 1371 1369 1367 1366 1364 1363 1362 1360 1358 1355 1351
1387 1386 1385 1384 1383 1382 1381 1380 1379 1378 1377 1377 1376 1376 1376 1375 1375 1375 1375 1375 1374 1373 1372 1371 1371 1370 1369 1368 1366 1365 1363 1361 1359 1357 1356 1355 1353 1350